Weather History for Fairmont, MN

Change the Weather History Date:

Thursday, March 1, 2012

  Actual Average Record
Temperature  
Mean Temperature 32 °F -  
Max Temperature 35 °F 36 °F 62 °F (1992)
Min Temperature 30 °F 18 °F -24 °F (1962)
Degree Days  
Heating Degree Days 32    
Moisture  
Dew Point 28 °F    
Average Humidity 84    
Maximum Humidity 93    
Minimum Humidity 70    
Precipitation  
Precipitation 0.00 in - - ()
Sea Level Pressure  
Sea Level Pressure 29.79 in    
Wind  
Wind Speed 9 mph (WSW)    
Max Wind Speed 14 mph    
Max Gust Speed 16 mph    
Visibility 8 miles    
Events      
Averages and records for this station are not official NWS values.
T = Trace of Precipitation, MM = Missing Value Source: NWS Daily Summary

Daily Weather History Graph

Daily Weather History Graph

Search for Another Location

Airport:

Trip Planner

Search our weather history database for the weather conditions in past years. The results will help you decide how hot, cold, wet, or windy it might be!

Date:

Astronomy

Mar. 01, 2012 Rise Set
Actual Time 6:53 AM CST 6:07 PM CST
Civil Twilight 6:24 AM CST 6:35 PM CST
Nautical Twilight 5:51 AM CST 7:09 PM CST
Astronomical Twilight 5:18 AM CST 7:42 PM CST
Moon 11:18 AM CST (3/1) 2:01 AM CST (3/1)
Length of Visible Light 12h 11m
Length of Day
11h 13m
First Quarter, 57% of the Moon is Illuminated
Mar 1
First Quarter
Mar 8
Full
Mar 14
Last Quarter
Mar 22
New
Mar 30
First Quarter

Hourly Weather History & Observations

Time (CST) Temp. Windchill Dew Point Humidity Pressure Visibility Wind Dir Wind Speed Gust Speed Precip Events Conditions
12:35 AM 30.2 °F 20.2 °F 26.6 °F 86% 29.77 in 7.0 mi NW 12.7 mph - N/A   Overcast
12:55 AM 30.2 °F 19.8 °F 26.6 °F 86% 29.77 in 7.0 mi NW 13.8 mph - N/A   Overcast
1:15 AM 30.2 °F 19.8 °F 26.6 °F 86% 29.79 in 5.0 mi NW 13.8 mph - N/A   Overcast
1:35 AM 30.2 °F 20.8 °F 26.6 °F 86% 29.80 in 7.0 mi NW 11.5 mph - N/A   Overcast
1:55 AM 30.2 °F 20.2 °F 26.6 °F 86% 29.81 in 7.0 mi WNW 12.7 mph - N/A   Overcast
2:15 AM 30.2 °F 20.2 °F 26.6 °F 86% 29.81 in 7.0 mi WNW 12.7 mph 16.1 mph N/A   Overcast
2:35 AM 30.2 °F 19.8 °F 26.6 °F 86% 29.81 in 7.0 mi WNW 13.8 mph - N/A   Overcast
2:55 AM 30.2 °F 19.8 °F 26.6 °F 86% 29.80 in 7.0 mi NW 13.8 mph - N/A   Overcast
3:15 AM 30.2 °F 20.8 °F 26.6 °F 86% 29.79 in 7.0 mi NW 11.5 mph - N/A   Overcast
3:35 AM 30.2 °F 21.3 °F 26.6 °F 86% 29.80 in 7.0 mi NW 10.4 mph - N/A   Overcast
3:55 AM 30.2 °F 21.9 °F 26.6 °F 86% 29.80 in 7.0 mi NW 9.2 mph - N/A   Overcast
4:15 AM 30.2 °F 21.9 °F 26.6 °F 86% 29.79 in 7.0 mi NW 9.2 mph - N/A   Overcast
4:35 AM 30.2 °F 22.6 °F 26.6 °F 86% 29.79 in 8.0 mi NW 8.1 mph - N/A   Overcast
4:55 AM 30.2 °F 23.4 °F 26.6 °F 86% 29.79 in 8.0 mi NW 6.9 mph - N/A   Overcast
5:15 AM 30.2 °F 25.4 °F 26.6 °F 86% 29.79 in 7.0 mi NW 4.6 mph - N/A   Overcast
5:35 AM 30.2 °F 23.4 °F 26.6 °F 86% 29.80 in 7.0 mi WNW 6.9 mph - N/A   Overcast
5:55 AM 30.2 °F 24.3 °F 26.6 °F 86% 29.80 in 8.0 mi NW 5.8 mph - N/A   Overcast
6:15 AM 30.2 °F 26.7 °F 26.6 °F 86% 29.79 in 7.0 mi NW 3.5 mph - N/A   Overcast
6:35 AM 30.2 °F 25.4 °F 26.6 °F 86% 29.80 in 7.0 mi WNW 4.6 mph - N/A   Overcast
7:15 AM 30.2 °F 26.7 °F 26.6 °F 86% 29.80 in 5.0 mi West 3.5 mph - N/A   Mostly Cloudy
7:35 AM 30.2 °F 26.7 °F 26.6 °F 86% 29.80 in 6.0 mi WSW 3.5 mph - N/A   Mostly Cloudy
8:15 AM 30.2 °F 26.7 °F 26.6 °F 86% 29.81 in 6.0 mi WSW 3.5 mph - N/A   Mostly Cloudy
8:35 AM 30.2 °F 24.3 °F 26.6 °F 86% 29.82 in 6.0 mi SW 5.8 mph - N/A   Mostly Cloudy
8:55 AM 30.2 °F 22.6 °F 26.6 °F 86% 29.83 in 6.0 mi WSW 8.1 mph - N/A   Overcast
9:15 AM 30.2 °F 22.6 °F 28.4 °F 93% 29.83 in 7.0 mi WSW 8.1 mph - N/A   Overcast
9:35 AM 30.2 °F 24.3 °F 26.6 °F 86% 29.83 in 8.0 mi West 5.8 mph - N/A   Overcast
10:15 AM 32.0 °F 27.5 °F 28.4 °F 87% 29.83 in 9.0 mi WSW 4.6 mph - N/A   Clear
10:35 AM 32.0 °F 28.7 °F 28.4 °F 87% 29.83 in 10.0 mi SW 3.5 mph - N/A   Scattered Clouds
10:55 AM 32.0 °F 28.7 °F 28.4 °F 87% 29.82 in 10.0 mi South 3.5 mph - N/A   Scattered Clouds
11:15 AM 33.8 °F 27.0 °F 30.2 °F 87% 29.83 in 10.0 mi South 8.1 mph - N/A   Mostly Cloudy
11:55 AM 35.6 °F 27.5 °F 28.4 °F 75% 29.82 in 10.0 mi South 11.5 mph - N/A   Mostly Cloudy
12:15 PM 35.6 °F 28.6 °F 28.4 °F 75% 29.81 in 10.0 mi South 9.2 mph - N/A   Overcast
12:55 PM 35.6 °F 29.2 °F 28.4 °F 75% 29.79 in 10.0 mi SSE 8.1 mph - N/A   Mostly Cloudy
1:15 PM 35.6 °F 29.9 °F 28.4 °F 75% 29.78 in 10.0 mi South 6.9 mph - N/A   Mostly Cloudy
1:35 PM 35.6 °F 29.2 °F 28.4 °F 75% 29.78 in 10.0 mi South 8.1 mph - N/A   Mostly Cloudy
1:55 PM 33.8 °F 29.6 °F 28.4 °F 81% 29.75 in 10.0 mi SE 4.6 mph - N/A   Mostly Cloudy
2:15 PM 35.6 °F 31.7 °F 28.4 °F 75% 29.75 in 10.0 mi South 4.6 mph - N/A   Scattered Clouds
2:35 PM 35.6 °F 31.7 °F 28.4 °F 75% 29.75 in 10.0 mi South 4.6 mph - N/A   Partly Cloudy
2:55 PM 35.6 °F 30.7 °F 26.6 °F 70% 29.75 in 10.0 mi SE 5.8 mph - N/A   Clear
3:15 PM 35.6 °F 30.7 °F 28.4 °F 75% 29.76 in 10.0 mi SSE 5.8 mph - N/A   Clear
3:35 PM 35.6 °F 30.7 °F 28.4 °F 75% 29.76 in 10.0 mi South 5.8 mph - N/A   Partly Cloudy
3:55 PM 35.6 °F 29.9 °F 28.4 °F 75% 29.76 in 10.0 mi South 6.9 mph - N/A   Scattered Clouds
4:15 PM 33.8 °F 27.0 °F 28.4 °F 81% 29.76 in 9.0 mi South 8.1 mph - N/A   Partly Cloudy
4:55 PM 33.8 °F 27.0 °F 30.2 °F 87% 29.75 in 10.0 mi South 8.1 mph - N/A   Partly Cloudy
5:35 PM 33.8 °F 27.0 °F 30.2 °F 87% 29.75 in 5.0 mi South 8.1 mph - N/A   Clear
5:55 PM 32.0 °F 24.2 °F 28.4 °F 87% 29.74 in 8.0 mi SSE 9.2 mph - N/A   Clear
6:15 PM 32.0 °F 25.6 °F 30.2 °F 93% 29.75 in 9.0 mi South 6.9 mph - N/A   Mostly Cloudy
6:35 PM 32.0 °F 26.4 °F 30.2 °F 93% 29.76 in 10.0 mi WSW 5.8 mph - N/A   Scattered Clouds
6:55 PM 32.0 °F 27.5 °F 28.4 °F 87% 29.77 in 10.0 mi West 4.6 mph - N/A   Clear
7:15 PM 32.0 °F - 28.4 °F 87% 29.77 in 10.0 mi Calm Calm - N/A   Partly Cloudy
7:35 PM 32.0 °F - 30.2 °F 93% 29.77 in 10.0 mi Calm Calm - N/A   Clear
7:55 PM 32.0 °F 26.4 °F 28.4 °F 87% 29.76 in 8.0 mi ESE 5.8 mph - N/A   Clear
8:15 PM 32.0 °F 24.2 °F 28.4 °F 87% 29.75 in 9.0 mi East 9.2 mph - N/A   Clear
8:35 PM 32.0 °F 26.4 °F 28.4 °F 87% 29.76 in 10.0 mi SSE 5.8 mph - N/A   Clear
8:55 PM 32.0 °F 24.2 °F 28.4 °F 87% 29.80 in 10.0 mi WSW 9.2 mph - N/A   Mostly Cloudy
9:15 PM 33.8 °F 27.0 °F 30.2 °F 87% 29.80 in 10.0 mi SW 8.1 mph - N/A   Mostly Cloudy
9:35 PM 33.8 °F 26.4 °F 30.2 °F 87% 29.80 in 10.0 mi SSW 9.2 mph - N/A   Overcast
9:55 PM 33.8 °F 27.0 °F 28.4 °F 81% 29.80 in 10.0 mi SSW 8.1 mph - N/A   Overcast
10:15 PM 33.8 °F 27.7 °F 28.4 °F 81% 29.79 in 10.0 mi SW 6.9 mph - N/A   Overcast
10:35 PM 33.8 °F 27.7 °F 28.4 °F 81% 29.79 in 10.0 mi SW 6.9 mph - N/A   Overcast
10:55 PM 33.8 °F 28.6 °F 28.4 °F 81% 29.78 in 10.0 mi SW 5.8 mph - N/A   Overcast
11:15 PM 33.8 °F 28.6 °F 28.4 °F 81% 29.78 in 10.0 mi WSW 5.8 mph - N/A   Mostly Cloudy
11:35 PM 32.0 °F 26.4 °F 28.4 °F 87% 29.77 in 10.0 mi SW 5.8 mph - N/A   Partly Cloudy
11:55 PM 32.0 °F 25.6 °F 28.4 °F 87% 29.77 in 10.0 mi WSW 6.9 mph - N/A   Clear